Home   Weather   Keflavík   Past weeks

Flag for Iceland Past Weather in Keflavík, Iceland — Yesterday and Last 2 Weeks

Now
34 °F

Passing clouds.


Feels Like: 25 °F
Forecast: 29 / 34 °F
Wind: 12 mph from South

Location: Keflavikurflugvollur

Current Time: Jan 17, 2017 at 11:11:21 am

Latest Report: Jan 17, 2017 at 10:30 am


Visibility: N/A

Pressure: 29.86 "Hg

Humidity: 70%

Dew Point: 25 °F

Location of KeflavíkLocation

Past Weather in Keflavík — Graph

°F

Keflavík Temperature Yesterday

Maximum temperature yesterday: 37 °F (at 12:00 am)
Minimum temperature yesterday: 30 °F (at 10:00 am)
Average temperature yesterday: 33 °F

High & Low Weather Summary for the Past Weeks

 TemperatureHumidityPressure
High45 °F (Jan 5, 4:00 am)100% (Jan 2, 10:01 am)30.33 "Hg (Jan 2, 10:01 am)
Low19 °F (Jan 12, 3:00 pm)56% (Jan 4, 2:30 am)28.94 "Hg (Jan 9, 12:00 am)
Average34 °F84%29.65 "Hg
* Reported Jan 2 10:01 am — Jan 17 10:00 am, Keflavík, Weather by CustomWeather, © 2017

Note: Actual official high and low records may vary slightly from our data, if they occured in-between our weather recording intervals... More about our weather records

Advertising

Keflavík Weather History for the Previous 24 Hours

Scroll right to see more
 ConditionsComfort  
Time TempWeatherWind HumidityBarometerVisibility
10:00 am
Tue, Jan 17
32 °FScattered showers. Passing clouds.9 mph75%29.86 "HgN/A
9:30 am34 °FScattered showers. Passing clouds.14 mph65%29.86 "HgN/A
9:00 am32 °FScattered showers. Passing clouds.16 mph80%29.86 "HgN/A
8:30 am32 °FPassing clouds.17 mph80%29.83 "HgN/A
8:00 am32 °FPartly cloudy.21 mph75%29.83 "HgN/A
7:30 am32 °FPartly cloudy.23 mph80%29.83 "HgN/A
7:00 am34 °FSnow flurries. Passing clouds.22 mph70%29.83 "HgN/A
6:30 am30 °FLight mixture of precip. Partly cloudy.21 mph93%29.83 "HgN/A
6:00 am32 °FSnow flurries. Passing clouds.22 mph87%29.83 "HgN/A
5:30 am32 °FSnow flurries. Passing clouds.24 mph87%29.80 "HgN/A
5:01 am34 °FScattered showers. Passing clouds.25 mph60%29.80 "HgN/A
4:30 am32 °FScattered showers. Partly cloudy.28 mph75%29.80 "HgN/A
4:00 am32 °FScattered showers. Passing clouds.25 mph87%29.80 "HgN/A
3:30 am28 °FSnow flurries. Passing clouds.39 mph93%29.77 "Hg1 mi
3:00 am34 °FScattered showers. Passing clouds.37 mph60%29.74 "HgN/A
2:30 am34 °FScattered showers. Partly cloudy.32 mph65%29.77 "HgN/A
2:00 am34 °FScattered showers. Partly cloudy.35 mph65%29.77 "HgN/A
1:30 am32 °FScattered showers. Partly cloudy.31 mph80%29.77 "HgN/A
1:00 am34 °FScattered showers. Passing clouds.32 mph70%29.77 "HgN/A
12:30 am34 °FScattered showers. Passing clouds.37 mph65%29.74 "HgN/A
12:00 am32 °FScattered showers. Passing clouds.35 mph75%29.74 "HgN/A
11:30 pm
Mon, Jan 16
34 °FSnow flurries. Partly cloudy.37 mph75%29.74 "HgN/A
11:00 pm30 °FSnow flurries. Partly cloudy.32 mph93%29.74 "Hg0 mi
10:30 pm34 °FScattered showers. Passing clouds.33 mph65%29.71 "HgN/A
10:00 pm34 °FScattered showers. Partly cloudy.35 mph70%29.71 "HgN/A
9:30 pm34 °FScattered showers. Partly cloudy.35 mph60%29.71 "HgN/A
9:00 pm32 °FScattered showers. Partly cloudy.37 mph80%29.71 "HgN/A
8:30 pm34 °FScattered showers. Passing clouds.36 mph65%29.68 "HgN/A
8:00 pm30 °FSnow showers. Passing clouds.38 mph93%29.68 "Hg1 mi
7:30 pm34 °FScattered showers. Partly cloudy.35 mph60%29.68 "HgN/A
7:00 pm34 °FScattered showers. Partly cloudy.33 mph65%29.68 "HgN/A
6:30 pm34 °FScattered showers. Partly cloudy.32 mph75%29.68 "HgN/A
6:00 pm34 °FScattered showers. Partly cloudy.24 mph81%29.68 "HgN/A
5:30 pm34 °FScattered showers. Partly cloudy.33 mph65%29.65 "HgN/A
5:00 pm30 °FSnow showers. Partly cloudy.28 mph100%29.68 "Hg2 mi
4:30 pm32 °FSnow flurries. Partly cloudy.26 mph87%29.65 "Hg1 mi
4:00 pm30 °FSnow flurries. Broken clouds.32 mph93%29.68 "Hg1 mi
3:30 pm34 °FScattered showers. Partly sunny.28 mph65%29.65 "HgN/A
3:00 pm34 °FScattered showers. Partly sunny.32 mph65%29.68 "HgN/A
2:30 pm34 °FScattered showers. Scattered clouds.33 mph65%29.68 "HgN/A
2:00 pm32 °FScattered showers. Passing clouds.31 mph75%29.68 "HgN/A
1:30 pm34 °FScattered showers. Partly sunny.30 mph70%29.68 "HgN/A
1:00 pm32 °FScattered showers. Broken clouds.30 mph87%29.68 "HgN/A
12:30 pm30 °FSnow flurries. Broken clouds.35 mph100%29.68 "Hg1 mi
12:00 pm34 °FScattered showers. Passing clouds.31 mph75%29.68 "HgN/A
11:30 am36 °FScattered showers. Broken clouds.24 mph75%29.65 "HgN/A
11:00 am32 °FScattered showers. Partly sunny.33 mph87%29.65 "Hg1 mi
Weather by CustomWeather, © 2017

See weather overviewHow to use our weather pages